TimeEDT,TemperatureF,Dew PointF,Humidity,Sea Level PressureIn,VisibilityMPH,Wind Direction,Wind SpeedMPH,Gust SpeedMPH,PrecipitationIn,Events,Conditions,WindDirDegrees,DateUTC
12:54 AM,53.1,50.0,89,29.99,10.0,NNW,6.9,-,N/A,,Clear,330,2007-05-17 04:54:00
1:54 AM,52.0,48.9,89,29.99,10.0,NNW,5.8,-,N/A,,Clear,340,2007-05-17 05:54:00
2:54 AM,52.0,46.9,83,29.98,10.0,North,4.6,-,N/A,,Clear,360,2007-05-17 06:54:00
3:54 AM,52.0,46.0,80,29.99,10.0,North,6.9,-,N/A,,Clear,350,2007-05-17 07:54:00
4:54 AM,51.1,46.0,83,29.99,10.0,North,8.1,-,N/A,,Clear,350,2007-05-17 08:54:00
5:54 AM,51.1,45.0,80,30.00,10.0,North,9.2,-,N/A,,Clear,350,2007-05-17 09:54:00
6:54 AM,48.9,45.0,86,30.04,9.0,NNW,11.5,-,N/A,,Clear,340,2007-05-17 10:54:00
7:54 AM,52.0,45.0,77,30.05,10.0,North,11.5,-,N/A,,Clear,350,2007-05-17 11:54:00
8:54 AM,55.9,44.1,64,30.06,10.0,North,11.5,-,N/A,,Clear,350,2007-05-17 12:54:00
9:54 AM,59.0,37.0,44,30.06,10.0,NNW,10.4,-,N/A,,Clear,340,2007-05-17 13:54:00
10:54 AM,62.1,28.9,29,30.06,10.0,North,12.7,24.2,N/A,,Clear,350,2007-05-17 14:54:00
11:54 AM,64.0,30.9,29,30.05,10.0,North,11.5,-,N/A,,Clear,350,2007-05-17 15:54:00
12:54 PM,66.0,30.9,27,30.04,10.0,North,11.5,-,N/A,,Clear,360,2007-05-17 16:54:00
1:54 PM,68.0,35.1,30,30.02,10.0,NW,10.4,18.4,N/A,,Clear,310,2007-05-17 17:54:00
2:54 PM,68.0,35.1,30,30.01,10.0,NNW,11.5,20.7,N/A,,Clear,330,2007-05-17 18:54:00
3:54 PM,69.1,34.0,27,30.00,10.0,North,11.5,19.6,N/A,,Clear,350,2007-05-17 19:54:00
4:54 PM,68.0,32.0,26,29.99,10.0,NNW,18.4,23.0,N/A,,Clear,340,2007-05-17 20:54:00
5:54 PM,64.9,33.1,31,30.00,10.0,NNW,15.0,19.6,N/A,,Clear,330,2007-05-17 21:54:00
6:54 PM,64.9,32.0,29,30.01,10.0,North,10.4,19.6,N/A,,Scattered Clouds,350,2007-05-17 22:54:00
7:54 PM,64.0,34.0,33,30.01,10.0,North,5.8,-,N/A,,Mostly Cloudy,360,2007-05-17 23:54:00
8:54 PM,62.1,34.0,35,30.03,10.0,North,6.9,-,N/A,,Clear,10,2007-05-18 00:54:00
9:54 PM,57.9,36.0,44,30.04,10.0,North,5.8,-,N/A,,Clear,360,2007-05-18 01:54:00
10:54 PM,55.9,37.9,51,30.06,10.0,NNW,10.4,-,N/A,,Scattered Clouds,340,2007-05-18 02:54:00
11:54 PM,55.0,39.0,55,30.07,10.0,NNW,12.7,-,N/A,,Scattered Clouds,340,2007-05-18 03:54:00